Arcata, CA

7:03 PM PDT on June 25, 2017 (GMT -0700)
Arcata

Weather History for KACV - July, 2014

Change the Weather History Date:

Thursday, July 10, 2014

  Actual Average Record
Temperature  
Mean Temperature 57 °F -  
Max Temperature 60 °F 61 °F 69 °F (1997)
Min Temperature 54 °F 48 °F 45 °F (2003)
Degree Days  
Heating Degree Days 8    
Growing Degree Days 7 (Base 50)    
Moisture  
Dew Point 53 °F    
Average Humidity 87    
Maximum Humidity 93    
Minimum Humidity 78    
Precipitation  
Precipitation 0.00 in - - ()
Sea Level Pressure  
Sea Level Pressure 29.93 in    
Wind  
Wind Speed 5 mph (SW)    
Max Wind Speed 12 mph    
Max Gust Speed -    
Visibility 8 miles    
Events      
Averages and records for this station are not official NWS values.
T = Trace of Precipitation, MM = Missing Value Source: NWS Daily Summary

Daily Weather History Graph

Daily Weather History Graph

Search for Another Location

Airport or City:

Trip Planner

Search our weather history database for the weather conditions in past years. The results will help you decide how hot, cold, wet, or windy it might be!

Date:

Astronomy

Jul. 10, 2014 Rise Set
Actual Time 5:53 AM PDT 8:49 PM PDT
Civil Twilight 5:20 AM PDT 9:22 PM PDT
Nautical Twilight 4:39 AM PDT 10:04 PM PDT
Astronomical Twilight 3:50 AM PDT 10:52 PM PDT
Moon 7:07 PM PDT (7/10) 4:11 AM PDT (7/10)
Length of Visible Light 16h 01m
Length of Day
14h 56m
Waxing Gibbous, 96% of the Moon is Illuminated
Jul 10
Waxing Gibbous
Jul 12
Full
Jul 18
Last Quarter
Jul 26
New
Aug 3
First Quarter

Hourly Weather History & Observations

Time (PDT) Temp. Dew Point Humidity Pressure Visibility Wind Dir Wind Speed Gust Speed Precip Events Conditions
12:53 AM 55.9 °F 52.0 °F 87% 29.89 in 9.0 mi South 3.5 mph - N/A   Overcast
1:53 AM 55.9 °F 52.0 °F 87% 29.88 in 10.0 mi SSW 3.5 mph - N/A   Overcast
3:38 AM 55.9 °F 52.0 °F 87% 29.87 in 10.0 mi Calm Calm - N/A   Overcast
3:53 AM 55.0 °F 52.0 °F 89% 29.89 in 9.0 mi Calm Calm - N/A   Overcast
4:53 AM 55.0 °F 52.0 °F 89% 29.89 in 10.0 mi South 5.8 mph - N/A   Overcast
5:31 AM 54.0 °F 51.1 °F 90% 29.89 in 8.0 mi South 6.9 mph - N/A   Overcast
6:53 AM 54.0 °F 52.0 °F 93% 29.91 in 3.0 mi SSW 6.9 mph - N/A   Overcast
7:29 AM 54.0 °F 52.0 °F 93% 29.91 in 1.8 mi SSW 6.9 mph - N/A   Overcast
7:53 AM 54.0 °F 52.0 °F 93% 29.93 in 1.2 mi SSW 6.9 mph - N/A   Overcast
8:53 AM 55.0 °F 53.1 °F 93% 29.94 in 2.0 mi SSW 6.9 mph - N/A   Overcast
9:44 AM 55.0 °F 53.1 °F 93% 29.93 in 1.8 mi SSW 9.2 mph - N/A   Overcast
9:53 AM 55.0 °F 53.1 °F 93% 29.94 in 2.0 mi SSW 6.9 mph - N/A   Overcast
10:17 AM 55.9 °F 53.1 °F 90% 29.93 in 4.0 mi SSW 11.5 mph - N/A   Overcast
10:53 AM 55.9 °F 53.1 °F 90% 29.95 in 6.0 mi SSW 6.9 mph - N/A   Overcast
11:45 AM 57.0 °F 52.0 °F 83% 29.94 in 10.0 mi SW 10.4 mph - N/A   Overcast
11:53 AM 57.9 °F 53.1 °F 84% 29.96 in 10.0 mi SW 9.2 mph - N/A   Overcast
12:53 PM 57.9 °F 52.0 °F 81% 29.95 in 10.0 mi SW 9.2 mph - N/A   Overcast
1:53 PM 57.9 °F 53.1 °F 84% 29.95 in 10.0 mi SW 8.1 mph - N/A   Overcast
2:53 PM 57.9 °F 53.1 °F 84% 29.95 in 10.0 mi WSW 5.8 mph - N/A   Overcast
3:53 PM 57.9 °F 53.1 °F 84% 29.94 in 10.0 mi WSW 5.8 mph - N/A   Overcast
4:53 PM 57.9 °F 53.1 °F 84% 29.93 in 10.0 mi WSW 6.9 mph - N/A   Overcast
5:34 PM 60.1 °F 53.1 °F 78% 29.90 in 10.0 mi WSW 5.8 mph - N/A   Overcast
5:53 PM 59.0 °F 53.1 °F 81% 29.92 in 10.0 mi WSW 5.8 mph - N/A   Overcast
6:24 PM 59.0 °F 53.1 °F 81% 29.90 in 10.0 mi SW 5.8 mph - N/A   Overcast
6:53 PM 59.0 °F 53.1 °F 81% 29.92 in 10.0 mi WSW 5.8 mph - N/A   Overcast
7:53 PM 57.0 °F 52.0 °F 83% 29.93 in 10.0 mi West 5.8 mph - N/A   Overcast
8:33 PM 57.0 °F 53.1 °F 87% 29.92 in 10.0 mi Calm Calm - N/A   Overcast
8:53 PM 57.9 °F 53.1 °F 84% 29.94 in 10.0 mi Calm Calm - N/A   Overcast
9:53 PM 57.0 °F 53.1 °F 87% 29.96 in 10.0 mi WNW 4.6 mph - N/A   Overcast
10:53 PM 57.0 °F 53.1 °F 87% 29.97 in 7.0 mi North 4.6 mph - N/A   Overcast
11:53 PM 55.9 °F 54.0 °F 93% 29.97 in 5.0 mi North 3.5 mph - N/A   Overcast